Regional Weather Roundup
Issued by NWS

Home | Current Version | Previous Version | Graphics & Text | Print | Product List | Glossary On
Versions: 1 2 3 4 5 6 7 8 9 10 11 12 13 14 15 16 17 18 19 20 21 22 23 24 25 26 27 28 29 30 31 32 33 34 35 36 37 38 39 40 41 42 43 44 45 46 47 48 49 50
000
ASUS43 KIND 311409
RWRIN

WEATHER ROUNDUP FOR INDIANA
NATIONAL WEATHER SERVICE INDIANAPOLIS IN
1000 AM EDT TUE MAY 31 2016

NOTE: "FAIR" INDICATES FEW OR NO CLOUDS BELOW 12,000 FEET WITH NO
SIGNIFICANT WEATHER AND/OR OBSTRUCTIONS TO VISIBILITY.

* - STATION DOES NOT REPORT WEATHER SUCH AS PRECIPITATION OR FOG.

+ - STATION NOT QUALITY CONTROLLED BY THE NATIONAL WEATHER SERVICE.
    USE DATA WITH CAUTION...ESPECIALLY DEWPOINT AND RELATIVE
    HUMIDITY OBSERVATIONS.

INZ001>003-010>013-019-020-311500-
NORTHWEST INDIANA

CITY           SKY/WX    TMP DP  RH WIND       PRES   REMARKS
GARY /AIRPORT/ PTSUNNY   75  64  69 SE12      30.02R
KNOX *+        CLOUDY    75  45  33 SE7       30.02S
LA PORTE +     PTSUNNY   77  56  49 E7        30.03S
MICHIGAN CITY+ HAZE      73  57  56 E3        30.02S VSB 1/2
MONTICELLO +   CLOUDY    75  49  40 E7        30.01R
RENSSELAER +   CLOUDY    75  52  43 E10       30.01S
VALPARAISO     CLOUDY    73  58  59 E7        30.02S

$$

LMZ046-743>745-311500-
SOUTHERN LAKE MICHIGAN

STATION/POSITION TIME  TEMP    WIND        PRES    WAVE
                       AIR SEA DIR/SP/G            HT
                 (UTC) (F)     (DEG/KT/KT) (MB)    (FT)
BURNS HARBOR     1300   72     100/  7/ 14 1016.6S
MICHIGAN CITY    1300   70      90/  9/ 10   N/A
5NW MICH CITY    1400   67 61   70/  6/  8   N/A     0

$$

INZ004-005-014>016-021>024-311500-
NORTH CENTRAL INDIANA

CITY           SKY/WX    TMP DP  RH WIND       PRES   REMARKS
ELKHART        MOSUNNY   75  57  53 E8        30.04S
GOSHEN         MOSUNNY   76  50  40 E10       30.04S
LOGANSPORT +   MOSUNNY   73  55  53 E8        30.03S
PERU/GRISSOM   MOSUNNY   75  57  53 SE9       30.01S
ROCHESTER +    PTSUNNY   79  57  47 SE7       30.03S
SOUTH BEND     SUNNY    N/A N/A N/A MISG      30.04S
WARSAW +       PTSUNNY   73  55  53 E8        30.04S

$$

INZ006>009-017-018-025>027-311500-
NORTHEAST INDIANA

CITY           SKY/WX    TMP DP  RH WIND       PRES   REMARKS
ANGOLA *+        N/A     75  50  41 E8        30.05S
AUBURN +       MOSUNNY   73  50  43 E5        30.05S
FORT WAYNE     CLOUDY    74  56  53 E8        30.04S
HUNTINGTON +   MOSUNNY  N/A N/A N/A CALM      30.03S

$$

INZ028-029-035-036-043>045-051>053-311500-
WEST CENTRAL INDIANA

CITY           SKY/WX    TMP DP  RH WIND       PRES   REMARKS
CRAWFORDSVL +  PTSUNNY   73  61  66 S3        30.01S
GREENCASTLE +  CLOUDY    77  63  61 CALM      30.01F
LAFAYETTE      CLOUDY    74  61  63 SE3       30.00S
TERRE HAUTE    PTSUNNY   75  64  68 SE5       30.00S

$$

INZ030>032-037>040-046>048-054>057-064-065-311500-
CENTRAL INDIANA

CITY           SKY/WX    TMP DP  RH WIND       PRES   REMARKS
CP ATTERBURY + CLOUDY    75  61  60 CALM      30.02S
COLUMBUS       SUNNY     75  63  64 CALM      30.02S
FISHERS *+     CLOUDY    77  64  65 CALM      30.02S
FRANKFORT +      N/A     77  44  30 SE6       30.03S
GREENWOOD *+   MOSUNNY   79  61  53 CALM      30.02S
INDIANAPOLIS   PTSUNNY   77  64  64 S3        30.01S
-EAGLE CREEK   MOSUNNY   77  62  59 S5        30.01R
KOKOMO *+      MOSUNNY   75  54  46 SE9       30.02S
MARION +       CLOUDY    74  56  52 E6        30.03S HAZE
SHELBYVILLE    MOSUNNY   80  59  48 CALM      30.01S
ZIONSVILLE +   CLOUDY    75  60  59 SE3       30.03S

$$

INZ033-034-041-042-049-050-058-059-311500-
EAST CENTRAL INDIANA

CITY           SKY/WX    TMP DP  RH WIND       PRES   REMARKS
MUNCIE         MOSUNNY   77  55  46 SE9       30.03S

$$

INZ060-061-067>069-081>083-085>088-311500-
SOUTHWEST INDIANA

CITY           SKY/WX    TMP DP  RH WIND       PRES   REMARKS
EVANSVILLE     PTSUNNY   76  61  59 E3        29.99S
HUNTINGBURG *+ MOSUNNY   75  63  64 E5        30.00S
WASHINGTON +   MOSUNNY   75  65  70 E3        30.00S

$$

INZ062-063-066-070>080-084-089>092-311500-
SOUTH CENTRAL AND SOUTHEAST INDIANA

CITY           SKY/WX    TMP DP  RH WIND       PRES   REMARKS
BEDFORD +      CLOUDY    75  70  83 CALM      30.01S
BLOOMINGTON    PTSUNNY   76  62  62 SE3       30.01S
MADISON *+     MOSUNNY   79  59  50 CALM      30.04F
NORTH VERNON + MOSUNNY   79  68  69 CALM      30.02F
SEYMOUR +      PTSUNNY   79  64  61 CALM      30.02S

$$




USA.gov is the U.S. government's official web portal to all federal, state and local government web resources and services.